Time,TemperatureF,DewpointF,PressureIn,WindDirection,WindDirectionDegrees,WindSpeedMPH,WindSpeedGustMPH,Humidity,HourlyPrecipIn,Conditions,Clouds,dailyrainin,SolarRadiationWatts/m^2,SoftwareType,DateUTC
2013-07-26 00:12:00,43.0,42.0,-100.00,NNW,348,0.0,4.0,97,0.00,,,0.73,0.000000,,2013-07-26 06:12:00,
2013-07-26 00:22:00,43.0,42.0,-100.00,NNW,348,0.0,4.0,97,0.00,,,0.73,0.000000,,2013-07-26 06:22:00,
2013-07-26 00:33:00,43.0,42.0,-100.00,NNW,348,0.0,4.0,97,0.00,,,0.73,0.000000,,2013-07-26 06:33:00,
2013-07-26 00:43:00,43.0,42.0,-100.00,NNW,348,0.0,4.0,97,0.00,,,0.73,0.000000,,2013-07-26 06:43:00,
2013-07-26 00:52:00,42.0,41.0,-100.00,WSW,243,0.0,2.0,98,0.00,,,0.72,0.000000,,2013-07-26 06:52:00,
2013-07-26 01:12:00,42.0,41.0,-100.00,WSW,243,0.0,2.0,98,0.00,,,0.72,0.000000,,2013-07-26 07:12:00,
2013-07-26 01:22:00,42.0,41.0,-100.00,WSW,243,0.0,2.0,98,0.00,,,0.72,0.000000,,2013-07-26 07:22:00,
2013-07-26 01:32:00,42.0,41.0,-100.00,WSW,243,0.0,2.0,98,0.00,,,0.72,0.000000,,2013-07-26 07:32:00,
2013-07-26 01:43:00,42.0,41.0,-100.00,WSW,243,0.0,2.0,98,0.00,,,0.72,0.000000,,2013-07-26 07:43:00,
2013-07-26 01:52:00,43.0,43.0,-100.00,NNW,345,0.0,0.0,99,0.00,,,0.72,0.000000,,2013-07-26 07:52:00,
2013-07-26 02:12:00,43.0,43.0,-100.00,NNW,345,0.0,0.0,99,0.00,,,0.72,0.000000,,2013-07-26 08:12:00,
2013-07-26 02:22:00,43.0,43.0,-100.00,NNW,345,0.0,0.0,99,0.00,,,0.72,0.000000,,2013-07-26 08:22:00,
2013-07-26 02:32:00,43.0,43.0,-100.00,NNW,345,0.0,0.0,99,0.00,,,0.72,0.000000,,2013-07-26 08:32:00,
2013-07-26 02:44:00,43.0,43.0,-100.00,NNW,345,0.0,0.0,99,0.00,,,0.72,0.000000,,2013-07-26 08:44:00,
2013-07-26 02:52:00,40.0,40.0,-100.00,NW,307,0.0,0.0,99,0.00,,,0.71,0.000000,,2013-07-26 08:52:00,
2013-07-26 03:12:00,40.0,40.0,-100.00,NW,307,0.0,0.0,99,0.00,,,0.71,0.000000,,2013-07-26 09:12:00,
2013-07-26 03:22:00,40.0,40.0,-100.00,NW,307,0.0,0.0,99,0.00,,,0.71,0.000000,,2013-07-26 09:22:00,
2013-07-26 03:32:00,40.0,40.0,-100.00,NW,307,0.0,0.0,99,0.00,,,0.71,0.000000,,2013-07-26 09:32:00,
2013-07-26 03:43:00,40.0,40.0,-100.00,NW,307,0.0,0.0,99,0.00,,,0.71,0.000000,,2013-07-26 09:43:00,
2013-07-26 03:52:00,38.0,37.0,-100.00,WNW,283,3.0,5.0,98,0.01,,,0.68,0.000000,,2013-07-26 09:52:00,
2013-07-26 04:12:00,38.0,37.0,-100.00,WNW,283,3.0,5.0,98,0.01,,,0.68,0.000000,,2013-07-26 10:12:00,
2013-07-26 04:22:00,38.0,37.0,-100.00,WNW,283,3.0,5.0,98,0.01,,,0.68,0.000000,,2013-07-26 10:22:00,
2013-07-26 04:33:00,38.0,37.0,-100.00,WNW,283,3.0,5.0,98,0.01,,,0.68,0.000000,,2013-07-26 10:33:00,
2013-07-26 04:42:00,38.0,37.0,-100.00,WNW,283,3.0,5.0,98,0.01,,,0.68,0.000000,,2013-07-26 10:42:00,
2013-07-26 04:52:00,36.0,35.0,-100.00,WNW,283,2.0,4.0,98,0.00,,,0.62,0.000000,,2013-07-26 10:52:00,
2013-07-26 05:12:00,36.0,35.0,-100.00,WNW,283,2.0,4.0,98,0.00,,,0.62,0.000000,,2013-07-26 11:12:00,
2013-07-26 05:22:00,36.0,35.0,-100.00,WNW,283,2.0,4.0,98,0.00,,,0.62,0.000000,,2013-07-26 11:22:00,
2013-07-26 05:32:00,36.0,35.0,-100.00,WNW,283,2.0,4.0,98,0.00,,,0.62,0.000000,,2013-07-26 11:32:00,
2013-07-26 05:43:00,36.0,35.0,-100.00,WNW,283,2.0,4.0,98,0.00,,,0.62,0.000000,,2013-07-26 11:43:00,
2013-07-26 05:52:00,35.0,35.0,-100.00,WNW,286,2.0,3.0,99,0.00,,,0.62,1.000000,,2013-07-26 11:52:00,
2013-07-26 06:12:00,35.0,35.0,-100.00,WNW,286,2.0,3.0,99,0.00,,,0.62,1.000000,,2013-07-26 12:12:00,
2013-07-26 06:22:00,35.0,35.0,-100.00,WNW,286,2.0,3.0,99,0.00,,,0.62,1.000000,,2013-07-26 12:22:00,
2013-07-26 06:33:00,35.0,35.0,-100.00,WNW,286,2.0,3.0,99,0.00,,,0.62,1.000000,,2013-07-26 12:33:00,
2013-07-26 06:43:00,35.0,35.0,-100.00,WNW,286,2.0,3.0,99,0.00,,,0.62,1.000000,,2013-07-26 12:43:00,
2013-07-26 06:52:00,38.0,37.0,-100.00,WNW,282,4.0,5.0,98,0.00,,,0.62,46.000000,,2013-07-26 12:52:00,
2013-07-26 07:12:00,38.0,37.0,-100.00,WNW,282,4.0,5.0,98,0.00,,,0.62,46.000000,,2013-07-26 13:12:00,
2013-07-26 07:22:00,38.0,37.0,-100.00,WNW,282,4.0,5.0,98,0.00,,,0.62,46.000000,,2013-07-26 13:22:00,
2013-07-26 07:32:00,38.0,37.0,-100.00,WNW,282,4.0,5.0,98,0.00,,,0.62,46.000000,,2013-07-26 13:32:00,
2013-07-26 07:43:00,38.0,37.0,-100.00,WNW,282,4.0,5.0,98,0.00,,,0.62,46.000000,,2013-07-26 13:43:00,
2013-07-26 07:52:00,50.0,49.0,-100.00,WNW,289,5.0,6.0,95,0.00,,,0.62,234.000000,,2013-07-26 13:52:00,
2013-07-26 08:32:00,50.0,49.0,-100.00,WNW,289,5.0,6.0,95,0.00,,,0.62,234.000000,,2013-07-26 14:32:00,
2013-07-26 08:43:00,50.0,49.0,-100.00,WNW,289,5.0,6.0,95,0.00,,,0.62,234.000000,,2013-07-26 14:43:00,
2013-07-26 08:52:00,56.0,48.0,-100.00,WSW,240,5.0,8.0,74,0.00,,,0.62,450.000000,,2013-07-26 14:52:00,
2013-07-26 09:32:00,56.0,48.0,-100.00,WSW,240,5.0,8.0,74,0.00,,,0.62,450.000000,,2013-07-26 15:32:00,
2013-07-26 09:43:00,56.0,48.0,-100.00,WSW,240,5.0,8.0,74,0.00,,,0.62,450.000000,,2013-07-26 15:43:00,
2013-07-26 09:52:00,60.0,48.0,-100.00,WSW,257,6.0,11.0,65,0.00,,,0.62,667.000000,,2013-07-26 15:52:00,
2013-07-26 10:14:00,60.0,48.0,-100.00,WSW,257,6.0,11.0,65,0.00,,,0.62,667.000000,,2013-07-26 16:14:00,
2013-07-26 10:22:00,60.0,48.0,-100.00,WSW,257,6.0,11.0,65,0.00,,,0.62,667.000000,,2013-07-26 16:22:00,
2013-07-26 10:32:00,60.0,48.0,-100.00,WSW,257,6.0,11.0,65,0.00,,,0.62,667.000000,,2013-07-26 16:32:00,
2013-07-26 10:43:00,60.0,48.0,-100.00,WSW,257,6.0,11.0,65,0.00,,,0.62,667.000000,,2013-07-26 16:43:00,
2013-07-26 10:52:00,65.0,44.0,-100.00,WNW,285,5.0,10.0,47,0.00,,,0.62,859.000000,,2013-07-26 16:52:00,
2013-07-26 11:12:00,65.0,44.0,-100.00,WNW,285,5.0,10.0,47,0.00,,,0.62,859.000000,,2013-07-26 17:12:00,
2013-07-26 11:22:00,65.0,44.0,-100.00,WNW,285,5.0,10.0,47,0.00,,,0.62,859.000000,,2013-07-26 17:22:00,
2013-07-26 11:33:00,65.0,44.0,-100.00,WNW,285,5.0,10.0,47,0.00,,,0.62,859.000000,,2013-07-26 17:33:00,
2013-07-26 11:43:00,65.0,44.0,-100.00,WNW,285,5.0,10.0,47,0.00,,,0.62,859.000000,,2013-07-26 17:43:00,
2013-07-26 11:52:00,66.0,41.0,-100.00,North,9,3.0,9.0,40,0.00,,,0.62,839.000000,,2013-07-26 17:52:00,
2013-07-26 12:12:00,66.0,41.0,-100.00,North,9,3.0,9.0,40,0.00,,,0.62,839.000000,,2013-07-26 18:12:00,
2013-07-26 12:23:00,66.0,41.0,-100.00,North,9,3.0,9.0,40,0.00,,,0.62,839.000000,,2013-07-26 18:23:00,
2013-07-26 12:33:00,66.0,41.0,-100.00,North,9,3.0,9.0,40,0.00,,,0.62,839.000000,,2013-07-26 18:33:00,
2013-07-26 12:43:00,66.0,41.0,-100.00,North,9,3.0,9.0,40,0.00,,,0.62,839.000000,,2013-07-26 18:43:00,
2013-07-26 12:52:00,66.0,40.0,-100.00,South,187,2.0,7.0,39,0.00,,,0.52,480.000000,,2013-07-26 18:52:00,
2013-07-26 13:12:00,66.0,40.0,-100.00,South,187,2.0,7.0,39,0.00,,,0.52,480.000000,,2013-07-26 19:12:00,
2013-07-26 13:22:00,66.0,40.0,-100.00,South,187,2.0,7.0,39,0.00,,,0.52,480.000000,,2013-07-26 19:22:00,
2013-07-26 13:32:00,66.0,40.0,-100.00,South,187,2.0,7.0,39,0.00,,,0.52,480.000000,,2013-07-26 19:32:00,
2013-07-26 13:43:00,66.0,40.0,-100.00,South,187,2.0,7.0,39,0.00,,,0.52,480.000000,,2013-07-26 19:43:00,
2013-07-26 13:52:00,63.0,43.0,-100.00,ESE,103,5.0,7.0,48,0.00,,,0.23,276.000000,,2013-07-26 19:52:00,
2013-07-26 14:12:00,63.0,43.0,-100.00,ESE,103,5.0,7.0,48,0.00,,,0.23,276.000000,,2013-07-26 20:12:00,
2013-07-26 14:22:00,63.0,43.0,-100.00,ESE,103,5.0,7.0,48,0.00,,,0.23,276.000000,,2013-07-26 20:22:00,
2013-07-26 14:32:00,63.0,43.0,-100.00,ESE,103,5.0,7.0,48,0.00,,,0.23,276.000000,,2013-07-26 20:32:00,
2013-07-26 14:43:00,63.0,43.0,-100.00,ESE,103,5.0,7.0,48,0.00,,,0.23,276.000000,,2013-07-26 20:43:00,
2013-07-26 14:52:00,64.0,44.0,-100.00,East,97,4.0,8.0,49,0.00,,,0.16,352.000000,,2013-07-26 20:52:00,
2013-07-26 15:12:00,64.0,44.0,-100.00,East,97,4.0,8.0,49,0.00,,,0.16,352.000000,,2013-07-26 21:12:00,
2013-07-26 15:22:00,64.0,44.0,-100.00,East,97,4.0,8.0,49,0.00,,,0.16,352.000000,,2013-07-26 21:22:00,
2013-07-26 15:32:00,64.0,44.0,-100.00,East,97,4.0,8.0,49,0.00,,,0.16,352.000000,,2013-07-26 21:32:00,
2013-07-26 15:43:00,64.0,44.0,-100.00,East,97,4.0,8.0,49,0.00,,,0.16,352.000000,,2013-07-26 21:43:00,
2013-07-26 15:52:00,70.0,43.0,-100.00,ENE,60,4.0,7.0,38,0.00,,,0.09,621.000000,,2013-07-26 21:52:00,
2013-07-26 16:12:00,70.0,43.0,-100.00,ENE,60,4.0,7.0,38,0.00,,,0.09,621.000000,,2013-07-26 22:12:00,
2013-07-26 16:22:00,70.0,43.0,-100.00,ENE,60,4.0,7.0,38,0.00,,,0.09,621.000000,,2013-07-26 22:22:00,
2013-07-26 16:33:00,70.0,43.0,-100.00,ENE,60,4.0,7.0,38,0.00,,,0.09,621.000000,,2013-07-26 22:33:00,
2013-07-26 16:43:00,70.0,43.0,-100.00,ENE,60,4.0,7.0,38,0.00,,,0.09,621.000000,,2013-07-26 22:43:00,
2013-07-26 16:52:00,66.0,41.0,-100.00,East,99,2.0,6.0,40,0.00,,,0.09,278.000000,,2013-07-26 22:52:00,
2013-07-26 17:12:00,66.0,41.0,-100.00,East,99,2.0,6.0,40,0.00,,,0.09,278.000000,,2013-07-26 23:12:00,
2013-07-26 17:22:00,66.0,41.0,-100.00,East,99,2.0,6.0,40,0.00,,,0.09,278.000000,,2013-07-26 23:22:00,
2013-07-26 17:32:00,66.0,41.0,-100.00,East,99,2.0,6.0,40,0.00,,,0.09,278.000000,,2013-07-26 23:32:00,
2013-07-26 17:43:00,66.0,41.0,-100.00,East,99,2.0,6.0,40,0.00,,,0.09,278.000000,,2013-07-26 23:43:00,
2013-07-26 17:52:00,68.0,44.0,-100.00,West,268,5.0,11.0,42,0.00,,,0.09,244.000000,,2013-07-26 23:52:00,
2013-07-26 18:12:00,68.0,44.0,-100.00,West,268,5.0,11.0,42,0.00,,,0.09,244.000000,,2013-07-27 00:12:00,
2013-07-26 18:22:00,68.0,44.0,-100.00,West,268,5.0,11.0,42,0.00,,,0.09,244.000000,,2013-07-27 00:22:00,
2013-07-26 18:32:00,68.0,44.0,-100.00,West,268,5.0,11.0,42,0.00,,,0.09,244.000000,,2013-07-27 00:32:00,
2013-07-26 18:43:00,68.0,44.0,-100.00,West,268,5.0,11.0,42,0.00,,,0.09,244.000000,,2013-07-27 00:43:00,
2013-07-26 18:52:00,69.0,37.0,-100.00,WNW,293,8.0,17.0,31,0.00,,,0.08,414.000000,,2013-07-27 00:52:00,
2013-07-26 19:12:00,69.0,37.0,-100.00,WNW,293,8.0,17.0,31,0.00,,,0.08,414.000000,,2013-07-27 01:12:00,
2013-07-26 19:22:00,69.0,37.0,-100.00,WNW,293,8.0,17.0,31,0.00,,,0.08,414.000000,,2013-07-27 01:22:00,
2013-07-26 19:32:00,69.0,37.0,-100.00,WNW,293,8.0,17.0,31,0.00,,,0.08,414.000000,,2013-07-27 01:32:00,
2013-07-26 19:43:00,69.0,37.0,-100.00,WNW,293,8.0,17.0,31,0.00,,,0.08,414.000000,,2013-07-27 01:43:00,
2013-07-26 19:52:00,62.0,36.0,-100.00,NE,34,3.0,13.0,38,0.00,,,0.08,202.000000,,2013-07-27 01:52:00,
2013-07-26 20:12:00,62.0,36.0,-100.00,NE,34,3.0,13.0,38,0.00,,,0.08,202.000000,,2013-07-27 02:12:00,
2013-07-26 20:22:00,62.0,36.0,-100.00,NE,34,3.0,13.0,38,0.00,,,0.08,202.000000,,2013-07-27 02:22:00,
2013-07-26 20:32:00,62.0,36.0,-100.00,NE,34,3.0,13.0,38,0.00,,,0.08,202.000000,,2013-07-27 02:32:00,
2013-07-26 20:43:00,62.0,36.0,-100.00,NE,34,3.0,13.0,38,0.00,,,0.08,202.000000,,2013-07-27 02:43:00,
2013-07-26 20:52:00,52.0,39.0,-100.00,South,173,4.0,6.0,61,0.00,,,0.06,18.000000,,2013-07-27 02:52:00,
2013-07-26 21:12:00,52.0,39.0,-100.00,South,173,4.0,6.0,61,0.00,,,0.06,18.000000,,2013-07-27 03:12:00,
2013-07-26 21:22:00,52.0,39.0,-100.00,South,173,4.0,6.0,61,0.00,,,0.06,18.000000,,2013-07-27 03:22:00,
2013-07-26 21:33:00,52.0,39.0,-100.00,South,173,4.0,6.0,61,0.00,,,0.06,18.000000,,2013-07-27 03:33:00,
2013-07-26 21:44:00,52.0,39.0,-100.00,South,173,4.0,6.0,61,0.00,,,0.06,18.000000,,2013-07-27 03:44:00,
2013-07-26 21:52:00,45.0,41.0,-100.00,West,281,2.0,4.0,86,0.00,,,0.01,0.000000,,2013-07-27 03:52:00,
2013-07-26 22:32:00,45.0,41.0,-100.00,West,281,2.0,4.0,86,0.00,,,0.01,0.000000,,2013-07-27 04:32:00,
2013-07-26 22:43:00,45.0,41.0,-100.00,West,281,2.0,4.0,86,0.00,,,0.01,0.000000,,2013-07-27 04:43:00,
2013-07-26 22:52:00,42.0,40.0,-100.00,West,275,0.0,3.0,91,0.00,,,0.01,0.000000,,2013-07-27 04:52:00,
2013-07-26 23:32:00,42.0,40.0,-100.00,West,275,0.0,3.0,91,0.00,,,0.01,0.000000,,2013-07-27 05:32:00,
2013-07-26 23:43:00,42.0,40.0,-100.00,West,275,0.0,3.0,91,0.00,,,0.01,0.000000,,2013-07-27 05:43:00,
2013-07-26 23:52:00,40.0,38.0,-100.00,WNW,302,1.0,4.0,94,0.00,,,0.01,0.000000,,2013-07-27 05:52:00,